Location: ?ern� Novina
(50.6762°N, 14.8696°E)
Time: 03:06:23
(UTC+00:00)

Okean O Rocket - Pass Details

Date: 03 March 2021
Orbit: 623 x 643 km, 98.2° (Epoch: 12 April)

Event Time Altitude Azimuth Distance (km) Brightness Sun altitude
Rises 17:08:13 0° 184° (S) 2,895 5.1 -4.4°
Reaches altitude 10° 17:10:31 10° 191° (SSW) 1,992 4.4 -4.8°
Maximum altitude 17:14:36 40° 262° (W) 927 3.3 -5.4°
Drops below altitude 10° 17:18:43 10° 332° (NNW) 2,009 4.5 -6.1°
Sets 17:21:02 0° 340° (NNW) 2,923 5.3 -6.4°
